Location: Ciserano
(45.5833°N, 9.6000°E)
Time: 09:11:47
(UTC+00:00)

Cosmos 2082 Rocket - Pass Details

Date: 29 November 2020
Orbit: 831 x 855 km, 71.0° (Epoch: 25 January)

Event Time Altitude Azimuth Distance (km) Brightness Sun altitude
Exits shadow 04:57:29 - 345° (NNW) 3,192 4.9 -17.3°
Reaches altitude 10° 05:00:05 10° 1° (N) 2,483 4.5 -16.9°
Maximum altitude 05:03:50 18° 43° (NE) 1,995 4.5 -16.2°
Drops below altitude 10° 05:07:36 10° 84° (E) 2,484 5.8 -15.6°
Sets 05:10:55 0° 104° (ESE) 3,419 7.3 -15.1°
